Flag for Germany Weather past 2 weeks in Dachau, Bavaria, Germany

Now
72 °F

Scattered clouds.


Feels Like: 76 °F
Forecast: 54 / 73 °F
Wind: 12 mph from East

Location: Oberpfaffenhofen

Current Time: Jul 23, 2014 at 1:54:14 PM

Latest Report: Jul 23, 2014 at 1:20 PM


Visibility: N/A

Pressure: 30.01 "Hg

Humidity: 61%

Dew point: 57 °F

Location of DachauLocation

Historic Weather in Dachau — Graph

°F

Dachau temperature yesterday

Maximum temperature yesterday: 66 °F (at 3:20 PM)
Minimum temperature yesterday: 59 °F (at 6:50 AM)
Average temperature yesterday: 63 °F

Past Weeks' High & Low Weather Summary

 TemperatureHumidityPressure
High90 °F (Jul 19, 5:50 PM)100% (Jul 16, 6:50 AM)30.24 "Hg (Jul 16, 6:50 AM)
Low50 °F (Jul 10, 6:50 AM)21% (Jul 19, 5:20 PM)29.80 "Hg (Jul 9, 6:50 AM)
Average66 °F68%30.00 "Hg
* Reported Jul 8 12:20 PM — Jul 23 12:20 PM, Dachau, Weather by CustomWeather, © 2014

Note: Actual official high and low records may vary slightly from our data, if they occured in-between our weather recording intervals... More about our weather records

Advertising

Dachau weather history for previous 24 hours

 ConditionsComfort  
Time TempWeatherWind HumidityBarometerVisibility
12:20 PM
Jul 23
72 °FPartly sunny.10 mph69%30.01 "HgN/A
11:50 AM70 °FScattered clouds.7 mph69%30.04 "HgN/A
11:20 AM70 °FScattered clouds.6 mph73%30.04 "HgN/A
10:20 AM66 °FScattered clouds.5 mph83%30.04 "HgN/A
7:50 AM59 °FFog.No wind100%30.04 "Hg1 mi
7:20 AM59 °FFog.2 mph94%30.04 "Hg0 mi
6:50 AM59 °FFog.2 mph100%30.04 "Hg0 mi
6:50 PM
Jul 22
64 °FBroken clouds.8 mph94%29.98 "Hg5 mi
6:20 PM66 °FLight rain. Fog.7 mph88%29.95 "Hg3 mi
5:50 PM66 °FRain. Fog.3 mph88%29.95 "Hg3 mi
5:20 PM66 °FRain. Fog.2 mph88%29.95 "Hg3 mi
4:50 PM64 °FLight rain. Fog.3 mph94%29.95 "Hg3 mi
4:20 PM64 °FLight rain. Fog.8 mph94%29.95 "Hg3 mi
3:50 PM64 °FLight rain. Broken clouds.8 mph94%29.95 "Hg6 mi
3:20 PM66 °FLight rain. Broken clouds.6 mph88%29.95 "HgN/A
2:50 PM64 °FLight rain. Broken clouds.5 mph88%29.95 "HgN/A
2:20 PM64 °FLight rain. Broken clouds.6 mph88%29.95 "Hg6 mi
1:50 PM64 °FLight rain. Broken clouds.6 mph88%29.95 "HgN/A
1:20 PM64 °FLight rain. Broken clouds.2 mph88%29.95 "HgN/A
Weather by CustomWeather, © 2014

See weather overviewHow to use our weather pages